SL-12 R/B(2)

Satellite information

Favourite Embed

Satellite Type and Status

ROCKET BODYIN ORBIT

Key statistics

Satellite SL-12 R/B(2) at a glance.

Uptime

11053

Days in orbit

Revolutions

≈ 2.1

Per day

Orbit

MEO

Medium Earth Orbit

Inclination

65.5

Latest

Satellite identification and parameters

Extended collection of information and parameters for SL-12 R/B(2).

Object identification

Identified? True

Debris? False

Object name: SL-12 R/B(2)

International designator: 1995-037F

Object number (NORAD): 23625

Object ID (CCSDS): 23625

Country: COMMONWEALTH OF INDEPENDENT STATES (CIS)

Current information (Y/N): Y

RCS size: LARGE

Orbital parameters

Period: 674.711 minutes

Inclination: 65.4753 deg

SMA: 25482.307 km

Apoapsis: 19125.46 km

Periapsis: 19082.883 km

RAAN: 209.2395 deg

Eccentricy: 0.00083543

Argument of periapsis: 192.0829 deg

Mean anomaly: 166.2583 deg

Mean motion: 2.13424689 rev/day

Mean motion (dot): 0.00000025 rev/day2

B* drag term: 0.0 1/REarth

Two-line elements (TLE)

Creation date: Oct. 25, 2025, 3:11 a.m.

Reference frame: TEME

Reference center: EARTH

Epoch: Oct. 24, 2025, 3:57 a.m. UTC

TLE line 0: 0 SL-12 R/B(2)

TLE line 1: 1 23625U 95037F 25297.16502929 .00000025 00000-0 00000-0 0 9998

TLE line 2: 2 23625 65.4753 209.2395 0008354 192.0829 166.2583 2.13424689235731

Live tracking on map

Real-time ground track for satellite SL-12 R/B(2).

In-orbit conjunctions

A list of the most updated potential collisions computed for object SL-12 R/B(2).

Target Orbit TCA Probability of collision Miss distance Type
COSMOS 2362 (GLONASS) MEO 2025-09-14 20:39:21 TBA 2140.0 (m) PAYLOAD
FREGAT R/B MEO 2025-06-30 06:20:30 TBA 2895.0 (m) ROCKET BODY
COSMOS 1989 (ETALON 1) MEO 2025-05-22 03:21:34 TBA 3560.0 (m) PAYLOAD
COSMOS 1883 (GLONASS) MEO 2024-10-06 18:09:09 TBA 3090.0 (m) PAYLOAD
SL-12 R/B(2) MEO 2024-09-03 11:32:10 TBA 4513.0 (m) ROCKET BODY

Associated space launch

GLONASS navigation satellites

SL-12 R/B(2) was lifted into orbit during the mission ‘Proton | Uragan 66 to 68’, on board a Proton space rocket.

The launch took place on July 24, 1995, 3:52 p.m. from 200/39 (200L).

For more information about the launch, click the button.

Launch to space Proton | Uragan 66 to 68
Proton | Uragan 66 to 68

Agency: N/A

Status: Launch Successful

Launch date: July 24, 1995, 3:52 p.m. UTC

Rocket: Proton

Launch pad: 200/39 (200L)

Location: Baikonur Cosmodrome, Republic of Kazakhstan

...

Latest news about this satellite

There are no fresh news available about this satellite. Check back as we update our databases every day.


Newsletter sign-up

Weekly statistics, charts and insights to help you stay on top of the space industry.